Find Starlink 32668

NORAD ID: 62212 Int'l Des: 2024-229 Owner: SPXS Country: US Constellation: starlink operational
LEOCIRCULAR

当前视图

正在加载3D地球...

About Starlink 32668

Starlink 32668 (NORAD 62212) is a starlink constellation satellite (v2 mini) launched Dec 4, 2024 by SPXS of US. It operates in LEO, CIRCULAR orbit with a mass of 730.00 kg.

即将过境

Passes for default location (London). Set your location on the main map for personalized predictions.

高度历史

Loading altitude history...

两行轨道根数

1 62212U 24229W 26228.65647333 .00003532 00000-0 13782-3 0 9996
2 62212 43.0037 84.0743 0001222 272.4309 87.6403 15.27580350 95066
Epoch: Aug 16, 2026 • Age: 4 hours

当前状态

高度 484.3 km
远地点 / 近地点 N/A
速度 7.62 km/s
星下点 -9.09°S, 11.7°E
发射日期 Dec 4, 2024
运行时间 1.6 years
类型 internet

技术详情

分类 Payload
质量 730.00 kg
干质量 700.00 kg
总质量 730.00 kg
长度 0.30 m
直径 4.10 m
跨度 29.00 m
形状 Box + pan
制造商 SPXS
平台类型 Starlink V2M
阶段状态 In Orbit
所有者/国家 SPXS/US

Most Searched